Time,TemperatureF,DewpointF,PressureIn,WindDirection,WindDirectionDegrees,WindSpeedMPH,WindSpeedGustMPH,Humidity,HourlyPrecipIn,Conditions,Clouds,dailyrainin,SoftwareType,DateUTC
2013-12-06 00:11:00,-11.0,-15.0,-100.00,SSW,200,0.0,0.0,84,0.00,,,0.00,,2013-12-06 07:11:00,
2013-12-06 00:42:00,-12.0,-15.0,-100.00,South,186,0.0,1.0,84,0.00,,,0.00,,2013-12-06 07:42:00,
2013-12-06 01:12:00,-12.0,-16.0,-100.00,SSW,199,0.0,1.0,84,0.00,,,0.00,,2013-12-06 08:12:00,
2013-12-06 01:42:00,-12.0,-16.0,-100.00,South,174,0.0,0.0,84,0.00,,,0.00,,2013-12-06 08:42:00,
2013-12-06 02:12:00,-12.0,-16.0,-100.00,South,185,0.0,0.0,84,0.00,,,0.00,,2013-12-06 09:12:00,
2013-12-06 02:22:00,-12.0,-16.0,-100.00,South,185,0.0,0.0,84,0.00,,,0.00,,2013-12-06 09:22:00,
2013-12-06 02:43:00,-13.0,-16.0,-100.00,SSW,199,0.0,0.0,83,0.00,,,0.00,,2013-12-06 09:43:00,
2013-12-06 02:54:00,-13.0,-16.0,-100.00,SSW,199,0.0,0.0,83,0.00,,,0.00,,2013-12-06 09:54:00,
2013-12-06 03:13:00,-13.0,-17.0,-100.00,SSW,195,0.0,0.0,83,0.00,,,0.00,,2013-12-06 10:13:00,
2013-12-06 03:23:00,-13.0,-17.0,-100.00,SSW,195,0.0,0.0,83,0.00,,,0.00,,2013-12-06 10:23:00,
2013-12-06 03:43:00,-13.0,-17.0,-100.00,SSW,195,0.0,0.0,83,0.00,,,0.00,,2013-12-06 10:43:00,
2013-12-06 04:12:00,-13.0,-16.0,-100.00,South,178,0.0,0.0,83,0.00,,,0.00,,2013-12-06 11:12:00,
2013-12-06 04:42:00,-13.0,-16.0,-100.00,SSW,200,0.0,0.0,83,0.00,,,0.00,,2013-12-06 11:42:00,
2013-12-06 05:12:00,-13.0,-16.0,-100.00,South,185,0.0,1.0,83,0.00,,,0.00,,2013-12-06 12:12:00,
2013-12-06 05:21:00,-13.0,-16.0,-100.00,South,185,0.0,1.0,83,0.00,,,0.00,,2013-12-06 12:21:00,
2013-12-06 05:42:00,-13.0,-16.0,-100.00,South,175,0.0,1.0,84,0.00,,,0.00,,2013-12-06 12:42:00,
2013-12-06 05:52:00,-13.0,-16.0,-100.00,South,175,0.0,1.0,84,0.00,,,0.00,,2013-12-06 12:52:00,
2013-12-06 06:11:00,-13.0,-16.0,-100.00,SSE,150,0.0,1.0,84,0.00,,,0.00,,2013-12-06 13:11:00,
2013-12-06 06:42:00,-13.0,-17.0,-100.00,SSE,148,0.0,1.0,83,0.00,,,0.00,,2013-12-06 13:42:00,
2013-12-06 07:11:00,-13.0,-17.0,-100.00,SSE,151,0.0,1.0,83,0.00,,,0.00,,2013-12-06 14:11:00,
2013-12-06 07:42:00,-13.0,-17.0,-100.00,SE,133,0.0,1.0,83,0.00,,,0.00,,2013-12-06 14:42:00,
2013-12-06 08:12:00,-14.0,-18.0,-100.00,SE,145,0.0,1.0,83,0.00,,,0.00,,2013-12-06 15:12:00,
2013-12-06 08:44:00,-14.0,-18.0,-100.00,SSE,167,0.0,0.0,83,0.00,,,0.00,,2013-12-06 15:44:00,
2013-12-06 09:13:00,-15.0,-18.0,-100.00,SE,145,0.0,1.0,83,0.00,,,0.00,,2013-12-06 16:13:00,
2013-12-06 09:43:00,-13.0,-17.0,-100.00,SE,145,0.0,1.0,84,0.00,,,0.00,,2013-12-06 16:43:00,
2013-12-06 10:12:00,-10.0,-14.0,-100.00,SE,124,0.0,1.0,85,0.00,,,0.00,,2013-12-06 17:12:00,
2013-12-06 10:43:00,-8.0,-11.0,-100.00,SE,134,0.0,1.0,86,0.00,,,0.00,,2013-12-06 17:43:00,
2013-12-06 11:12:00,-9.0,-12.0,-100.00,SE,136,0.0,1.0,86,0.00,,,0.00,,2013-12-06 18:12:00,
2013-12-06 11:42:00,-5.0,-8.0,-100.00,SE,124,0.0,0.0,89,0.00,,,0.00,,2013-12-06 18:42:00,
2013-12-06 12:11:00,-5.0,-8.0,-100.00,SSE,147,0.0,0.0,88,0.00,,,0.00,,2013-12-06 19:11:00,
2013-12-06 12:42:00,-6.0,-9.0,-100.00,SE,140,0.0,1.0,87,0.00,,,0.00,,2013-12-06 19:42:00,
2013-12-06 13:11:00,-5.0,-8.0,-100.00,SE,126,0.0,1.0,88,0.00,,,0.00,,2013-12-06 20:11:00,
2013-12-06 13:42:00,-5.0,-8.0,-100.00,SE,127,0.0,1.0,87,0.00,,,0.00,,2013-12-06 20:42:00,
2013-12-06 14:11:00,-5.0,-8.0,-100.00,ESE,121,0.0,1.0,88,0.00,,,0.00,,2013-12-06 21:11:00,
2013-12-06 14:43:00,-5.0,-8.0,-100.00,ESE,120,0.0,0.0,88,0.00,,,0.00,,2013-12-06 21:43:00,
2013-12-06 15:13:00,-6.0,-9.0,-100.00,ESE,123,0.0,0.0,88,0.00,,,0.00,,2013-12-06 22:13:00,
2013-12-06 15:42:00,-6.0,-9.0,-100.00,ESE,120,0.0,0.0,87,0.00,,,0.00,,2013-12-06 22:42:00,
2013-12-06 16:12:00,-6.0,-9.0,-100.00,SE,128,5.0,9.0,87,0.00,,,0.00,,2013-12-06 23:12:00,
2013-12-06 16:42:00,-7.0,-9.0,-100.00,ESE,102,4.0,8.0,87,0.00,,,0.00,,2013-12-06 23:42:00,
2013-12-06 17:11:00,-8.0,-10.0,-100.00,ESE,103,3.0,6.0,86,0.00,,,0.00,,2013-12-07 00:11:00,
2013-12-06 17:21:00,-8.0,-10.0,-100.00,ESE,103,3.0,6.0,86,0.00,,,0.00,,2013-12-07 00:21:00,
2013-12-06 17:42:00,-9.0,-12.0,-100.00,ESE,120,6.0,10.0,86,0.00,,,0.00,,2013-12-07 00:42:00,
2013-12-06 18:11:00,-9.0,-12.0,-100.00,SE,141,5.0,8.0,86,0.00,,,0.00,,2013-12-07 01:11:00,
2013-12-06 18:42:00,-9.0,-12.0,-100.00,SE,140,5.0,9.0,86,0.00,,,0.00,,2013-12-07 01:42:00,
2013-12-06 19:11:00,-9.0,-13.0,-100.00,ESE,123,5.0,10.0,85,0.00,,,0.00,,2013-12-07 02:11:00,
2013-12-06 19:42:00,-10.0,-13.0,-100.00,SE,133,6.0,10.0,85,0.00,,,0.00,,2013-12-07 02:42:00,
2013-12-06 20:11:00,-11.0,-14.0,-100.00,SSE,154,4.0,7.0,85,0.00,,,0.00,,2013-12-07 03:11:00,
2013-12-06 20:43:00,-11.0,-15.0,-100.00,SE,145,5.0,8.0,84,0.00,,,0.00,,2013-12-07 03:43:00,
2013-12-06 21:12:00,-12.0,-15.0,-100.00,SSE,152,4.0,8.0,84,0.00,,,0.00,,2013-12-07 04:12:00,
2013-12-06 21:43:00,-12.0,-16.0,-100.00,SSW,195,3.0,5.0,84,0.00,,,0.00,,2013-12-07 04:43:00,
2013-12-06 22:00:00,-13.0,-17.0,-100.00,South,179,3.0,6.0,83,0.00,,,0.00,,2013-12-07 05:00:00,
2013-12-06 22:12:00,-13.0,-17.0,-100.00,SSE,164,2.0,3.0,83,0.00,,,0.00,,2013-12-07 05:12:00,
2013-12-06 22:43:00,-13.0,-17.0,-100.00,South,179,3.0,6.0,83,0.00,,,0.00,,2013-12-07 05:43:00,
2013-12-06 22:53:00,-13.0,-17.0,-100.00,South,179,3.0,6.0,83,0.00,,,0.00,,2013-12-07 05:53:00,
2013-12-06 23:22:00,-13.0,-17.0,-100.00,SE,136,4.0,7.0,83,0.00,,,0.00,,2013-12-07 06:22:00,
2013-12-06 23:32:00,-13.0,-17.0,-100.00,SE,136,4.0,7.0,83,0.00,,,0.00,,2013-12-07 06:32:00,
2013-12-06 23:53:00,-13.0,-16.0,-100.00,SE,134,4.0,6.0,84,0.00,,,0.00,,2013-12-07 06:53:00,